Overview Statistics Trail Chart Weather Telemetry Raw packets
 

This is the latest recevied weather packets stored in our database for station/object DB0BGL. If no packets are shown the sender has not sent any weather packets the latest 10 day(s).

<< 1 2 3 4 5 6 >>
Time Temp. Humidity Pressure Rain* Wind** Luminosity Snow
1788501412 12.78° C 64% 0 hPa 0 mm - - -
1788500812 12.78° C 64% 0 hPa 0 mm - - -
1788500211 12.78° C 64% 0 hPa 0 mm - - -
1788499611 12.78° C 65% 0 hPa 0 mm - - -
1788453862 12.78° C 79% 0 hPa 0 mm - - -
1788453261 13.33° C 77% 0 hPa 0 mm - - -
1788452661 13.33° C 75% 0 hPa 0 mm - - -
1788452060 13.33° C 68% 0 hPa 0 mm - - -
1788451460 13.89° C 70% 0 hPa 0 mm - - -
1788450859 14.44° C 69% 0 hPa 0 mm - - -
1788450259 15° C 68% 0 hPa 0 mm - - -
1788449658 15° C 66% 0 hPa 0 mm - - -
1788449057 15.56° C 64% 0 hPa 0 mm - - -
1788448457 15.56° C 63% 0 hPa 0 mm - - -
1788447856 15° C 66% 0 hPa 0 mm - - -
1788447256 15° C 68% 0 hPa 0 mm - - -
1788446655 14.44° C 66% 0 hPa 0 mm - - -
1788446054 15° C 62% 0 hPa 0 mm - - -
1788445510 15° C 59% 0 hPa 0 mm - - -
1788445454 15° C 59% 0 hPa 0 mm - - -
1788444853 17.22° C 59% 0 hPa 0 mm - - -
1788444253 18.33° C 55% 0 hPa 0 mm - - -
1788443652 18.33° C 51% 0 hPa 0 mm - - -
1788443051 19.44° C 100% 0 hPa 0 mm - - -
1788442451 18.33° C 56% 0 hPa 0 mm - - -

* Rain latest hour (hover to see other rain measurements)
** Current wind speed in m/s (hover to see current wind gust speed)